This is the latest recevied weather packets stored in our database for station/object N4TLC. If no packets are shown the sender has not sent any weather packets the latest 1 day(s).
| Time | Temp. | Humidity | Pressure | Rain* | Wind** | Luminosity | Snow |
|---|---|---|---|---|---|---|---|
| 1777978103 | 11.11° C | 84% | 1018 hPa | 0 mm | 0.45 m/s, 110° | 14 W/m² | - |
| 1777977801 | 11.11° C | 84% | 1018 hPa | 0 mm | 0 m/s | 12 W/m² | - |
| 1777977497 | 11.11° C | 83% | 1017.8 hPa | 0 mm | 0.89 m/s, 74° | 9 W/m² | - |
| 1777977195 | 11.11° C | 83% | 1018 hPa | 0 mm | 0.89 m/s, 117° | 6 W/m² | - |
| 1777976892 | 11.11° C | 82% | 1017.9 hPa | 0 mm | 0.89 m/s, 70° | 4 W/m² | - |
| 1777976589 | 11.11° C | 81% | 1017.9 hPa | 0 mm | 0.45 m/s, 68° | 2 W/m² | - |
| 1777976289 | 11.67° C | 80% | 1017.8 hPa | 0 mm | 0.45 m/s, 119° | 1 W/m² | - |
| 1777975984 | 11.67° C | 80% | 1017.8 hPa | 0 mm | 0.45 m/s, 93° | 0 W/m² | - |
| 1777975681 | 11.67° C | 80% | 1017.7 hPa | 0 mm | 0.45 m/s, 111° | 0 W/m² | - |
| 1777975377 | 11.67° C | 81% | 1017.7 hPa | 0 mm | 0.89 m/s, 156° | 0 W/m² | - |
| 1777975073 | 11.11° C | 81% | 1017.7 hPa | 0 mm | 0.89 m/s, 125° | 0 W/m² | - |
| 1777974771 | 11.11° C | 81% | 1017.6 hPa | 0 mm | 0.89 m/s, 132° | 0 W/m² | - |
| 1777974466 | 11.11° C | 81% | 1017.6 hPa | 0 mm | 0.89 m/s, 128° | 0 W/m² | - |
| 1777974163 | 11.11° C | 81% | 1017.6 hPa | 0 mm | 0.89 m/s, 136° | 0 W/m² | - |
| 1777973859 | 11.11° C | 81% | 1017.5 hPa | 0 mm | 0.89 m/s, 123° | 0 W/m² | - |
| 1777973557 | 11.11° C | 80% | 1017.6 hPa | 0 mm | 0.89 m/s, 118° | 0 W/m² | - |
| 1777973253 | 11.11° C | 80% | 1017.5 hPa | 0 mm | 0.89 m/s, 112° | 0 W/m² | - |
| 1777972952 | 11.11° C | 79% | 1017.7 hPa | 0 mm | 0.45 m/s, 96° | 0 W/m² | - |
| 1777972649 | 11.11° C | 79% | 1017.6 hPa | 0 mm | 0.89 m/s, 86° | 0 W/m² | - |
| 1777972347 | 11.67° C | 78% | 1017.3 hPa | 0 mm | 0.89 m/s, 89° | 0 W/m² | - |
| 1777972044 | 11.67° C | 77% | 1017.4 hPa | 0 mm | 0.89 m/s, 110° | 0 W/m² | - |
| 1777971743 | 11.67° C | 77% | 1017.2 hPa | 0 mm | 0.89 m/s, 101° | 0 W/m² | - |
| 1777971440 | 11.67° C | 76% | 1017.1 hPa | 0 mm | 0 m/s | 0 W/m² | - |
| 1777971138 | 12.22° C | 75% | 1017.3 hPa | 0 mm | 0.89 m/s, 106° | 0 W/m² | - |
| 1777970835 | 12.22° C | 74% | 1017.1 hPa | 0 mm | 0.45 m/s, 93° | 0 W/m² | - |
* Rain latest hour (hover to see other rain measurements)
** Current wind speed in m/s (hover to see current wind gust speed)